sat.trackr.live / text

‹ back to catalog

STARLINK-3987

NORAD 52699 · 2022-053AV

PAYLOAD ACTIVE UNKNOWN

§ Identity

Operator
Country
US
Launch date
2022-05-18
Launch site
AFETR
Launch vehicle
Mass (kg)
RCS (m²)

Purposes: comms

External: N2YO · Heavens-Above · Gunter

§ Orbital elements

Epoch: 2026-05-25T00:20:14.288064Z

Period
95.44 min
Inclination
53.2119°
Eccentricity
0.0001295
Mean motion
15.08876530 rev/d
Perigee alt
538.7 km
Apogee alt
540.5 km
Semi-major
6,917.8 km
B*
-4.6075e-4
RAAN
156.5180°
Arg perigee
93.4838°
Mean anomaly
266.6302°
Rev number
22,276

§ Raw data

STARLINK-39871 52699U 22053AV  26145.01405426 -.00007621  00000+0 -46075-3 0  99952 52699  53.2119 156.5180 0001295  93.4838 266.6302 15.08876530222769

JSON: /api/v1/satellites/52699 · /tle

For live sub-satellite position, see the globe view (requires WebGL).

§ Visibility from observer

Set your observer location to see the next 7 days of passes ≥ 10°. The values pass through the URL so the page stays shareable.

No JS? Fill the form by hand. The geolocation button needs JavaScript.